[[{"header":{"parameterUnit":"m.s-1","parameterCategory":1,"la1":30.2991,"la2":30.254,"lo1":-89.0895,"lo2":-89.0444,"dy":0.0017,"dx":0.0017,"nx":28,"ny":28,"refTime":"2023-08-12T21:00:00:Z","depth":0,"parameterNumber":2,"parameterNumberName":"U-component_of_WINDS"},"data":[0,0,0,0,0,0,0,0,0,0,0,0,0,0,0,0,0,0,0,0,0,0,0,0,0,0,0,0,0,0,0,0,0,0,0,0,0,0,0,0,0,0,0,0,0,0,0,0,0,0,0,0,0,0,0,0,0,0,3.8156,3.8156,0,3.8165,3.8165,3.8166,3.8066,3.8063,3.806,3.8058,3.8067,3.807,3.8072,0,0,0,0,0,0,0,0,0,0,0,0,0,3.805,3.8053,3.8156,3.8156,3.8156,3.8165,3.8165,3.8166,3.8066,3.8063,3.806,3.8056,3.8066,3.8069,3.8073,0,0,0,0,0,0,0,0,0,0,0,0,0,3.8082,3.8054,3.8156,3.8108,3.8103,3.8165,3.8165,3.8166,3.8067,3.8063,3.8059,3.8055,3.8065,3.8069,3.8073,3.8182,0,0,3.8086,3.8088,0,0,0,0,0,0,0,0,3.808,3.8086,3.8115,3.8111,3.8107,3.811,3.8131,3.8171,3.8068,3.8081,3.8058,3.8053,3.8085,3.8087,3.8098,3.8182,3.8182,3.8086,3.8089,3.8091,3.8092,0,0,0,0,0,0,0,3.8078,3.8085,3.816,3.8115,3.811,3.8085,3.8085,3.8139,3.8106,3.8079,3.8072,3.8075,3.8082,3.8094,3.8097,3.8183,3.8086,3.809,3.8093,3.8094,3.8353,3.8357,0,0,0,0,0,0,3.8082,3.8084,3.8159,3.816,3.8083,3.809,3.809,3.8113,3.8105,3.81,3.8078,3.807,3.8089,3.8092,3.8097,3.822,3.8091,3.8095,3.8097,3.8349,3.8354,3.8359,0,0,0,0,0,0,3.8081,3.809,3.8159,3.812,3.8127,3.8097,3.8123,3.8116,3.8128,3.8104,3.8097,3.8097,3.8086,3.8091,3.8161,3.822,3.8097,3.81,3.8344,3.835,3.8356,3.847,0,0,0,0,0,0,3.8078,3.809,3.8131,3.8121,3.8129,3.8223,3.8127,3.8119,3.8135,3.8125,3.812,3.8115,3.8083,3.8155,3.8165,3.8223,3.8104,3.8338,3.8347,3.8354,3.8461,3.848,3.8496,0,0,0,0,0,3.8075,3.8164,3.8134,3.8144,3.818,3.8227,3.8231,3.8192,3.8141,3.8181,3.8166,3.8115,3.8213,3.8163,3.8173,3.8234,3.8334,3.8344,3.8354,3.8453,3.8476,3.8496,0,0,0,0,0,0,3.8182,3.8162,3.8128,3.8217,3.8224,3.821,3.826,3.8218,3.824,3.8229,3.818,3.818,3.8257,3.8253,3.8198,3.8337,3.8264,3.8276,3.8336,3.8358,3.8375,3.8373,3.8107,0,0,0,0,0,3.8216,3.8255,3.8236,3.8316,3.8321,3.829,3.8309,3.8279,3.8284,3.8286,3.8276,3.8283,3.8314,3.8336,3.8365,3.8461,3.8457,3.8508,3.8525,3.854,3.855,3.8598,3.8619,3.8391,3.8391,3.839,0,0,3.8286,3.828,3.8308,3.8337,3.8339,3.838,3.8293,3.8341,3.8371,3.8294,3.8357,3.8351,3.8355,3.8437,3.8473,3.8436,3.8612,3.8552,3.8564,3.8566,3.861,3.8631,3.8651,3.8397,3.8396,3.8395,0,0,3.8434,3.8435,3.85,3.8504,3.8508,3.8486,3.8502,3.8494,3.8486,3.855,3.8492,3.8527,3.8583,3.8588,3.8597,3.8747,3.87,3.8758,3.8848,3.8895,3.8913,3.8929,3.8979,3.8998,3.8769,3.8769,3.8769,0,3.8521,3.8581,3.8539,3.859,3.8603,3.8536,3.86,3.8606,3.862,3.863,3.8589,3.8656,3.8655,3.8736,3.8772,3.8784,3.8799,3.8757,3.8914,3.8929,3.8943,3.899,3.901,3.8776,3.8775,3.8775,3.8774,0,3.8685,3.8728,3.878,3.8793,3.8813,3.8871,3.8837,3.8862,3.8831,3.8814,3.8878,3.8874,3.8899,3.8917,3.8887,3.8993,3.897,3.8923,3.8848,3.8972,3.9016,3.9034,3.8786,3.8783,3.8781,3.8779,0,0,3.89,3.8889,3.8909,3.8912,3.8912,3.8943,3.8998,3.9022,3.9043,3.9055,3.9097,3.9147,3.9102,3.9113,3.9083,3.9125,3.924,3.9072,3.9071,3.9101,3.9354,3.9387,3.9409,3.9211,3.9214,3.9217,3.9353,0,3.9041,3.9133,3.9096,3.919,3.9228,3.9164,3.9211,3.9215,3.9201,3.923,3.9214,3.9249,3.9189,3.9195,3.9234,3.9218,3.929,3.9208,3.9248,3.925,3.9245,3.9432,3.9468,3.9596,3.937,3.9373,3.9375,0,3.9218,3.9236,3.9333,3.9324,3.9338,3.9381,3.9399,3.9428,3.9432,3.9418,3.9431,3.9391,3.9442,3.9371,3.944,3.9385,3.94,3.9394,3.9398,3.9398,3.9317,3.9433,3.9636,3.9654,3.9402,3.94,3.9398,0,3.936,3.9409,3.9472,3.9479,3.947,3.9501,3.9499,3.9498,3.9515,3.9531,3.954,3.9563,3.9575,3.9593,3.956,3.9511,3.9633,3.9559,3.9621,3.9622,3.9647,3.9645,3.9851,3.9663,3.9662,3.9662,3.9661,0,3.952,3.9581,3.9536,3.9575,3.9641,3.9599,3.9666,3.9657,3.9657,3.9692,3.964,3.9674,3.963,3.966,3.9635,3.9694,3.9701,3.969,3.9682,3.9693,3.9694,3.9699,3.9688,3.9667,3.9666,3.9665,3.9664,0,3.9688,3.9661,3.9725,3.9712,3.971,3.9759,3.9747,3.9782,3.9765,3.981,3.9818,3.979,3.9823,3.9793,3.9824,3.9807,3.9885,3.9866,3.9884,3.9877,3.9939,3.9933,4.0153,4.0179,3.9978,3.998,3.9981,0,3.979,3.9835,3.9827,3.9846,3.9847,3.988,3.9896,3.9857,3.9875,3.9882,3.9916,3.9944,3.9963,4.0018,4.0,4.0023,4.0002,4.0078,4.0005,4.0014,3.9999,3.9995,3.9998,4.0092,4.0094,4.0096,4.0098,0,3.9973,3.9956,3.9981,4.0001,4.0021,4.0035,4.0045,4.0064,4.0024,4.0047,4.0079,4.0095,4.0126,4.0153,4.0171,4.0168,4.0126,4.0121,4.0136,4.0146,4.0152,4.0146,3.992,4.0116,4.0114,4.0113,4.0112,4.0111,4.0108,4.0144,4.0143,4.0172,4.0175,4.0185,4.0216,4.0203,4.0228,4.025,4.0226,4.0265,4.0265,4.0285,4.0287,4.0316,4.0284,4.0307,4.0312,4.0317,4.0324,4.0151,4.032,4.0319,4.0319,4.0318,4.0318,0,4.0284,4.028,4.0307,4.0322,4.0345,4.0304,4.0312,4.0333,4.0368,4.0372,4.0393,4.0429,4.0455,4.044,4.0462,4.0488,4.0469,4.0495,4.0491,4.0491,4.0354,4.0337,4.051,4.051,4.051,4.051,4.051,4.051,4.0378,4.0436,4.042,4.0479,4.0474,4.0511,4.0519,4.0528,4.0531,4.0573,4.0594,4.0585,4.0581,4.0602,4.0624,4.0619,4.0628,4.0661,4.0648,4.052,4.0501,4.0482,4.0466,4.0664,4.0664,4.0782,4.0783,4.0784]},{"header":{"parameterUnit":"m.s-1","parameterCategory":1,"la1":30.2991,"la2":30.254,"lo1":-89.0895,"lo2":-89.0444,"dy":0.0017,"dx":0.0017,"nx":28,"ny":28,"refTime":"2023-08-12T21:00:00:Z","depth":0,"parameterNumber":3,"parameterNumberName":"V-component_of_WINDS"},"data":[0,0,0,0,0,0,0,0,0,0,0,0,0,0,0,0,0,0,0,0,0,0,0,0,0,0,0,0,0,0,0,0,0,0,0,0,0,0,0,0,0,0,0,0,0,0,0,0,0,0,0,0,0,0,0,0,0,0,4.051,4.0511,0,4.0594,4.0595,4.0596,4.0572,4.0571,4.0569,4.0567,4.0649,4.0653,4.0657,0,0,0,0,0,0,0,0,0,0,0,0,0,4.0324,4.0327,4.051,4.0511,4.0512,4.0593,4.0595,4.0596,4.0573,4.0571,4.0569,4.0567,4.0648,4.0653,4.0657,0,0,0,0,0,0,0,0,0,0,0,0,0,4.0406,4.0329,4.0509,4.051,4.0511,4.0593,4.0595,4.0596,4.0573,4.0571,4.0568,4.0566,4.0647,4.0652,4.0658,4.0743,0,0,4.0675,4.0677,0,0,0,0,0,0,0,0,4.0401,4.0413,4.0509,4.051,4.0511,4.057,4.0559,4.0645,4.0574,4.0549,4.0567,4.0565,4.0625,4.0632,4.0653,4.0747,4.075,4.0675,4.0679,4.0681,4.0683,0,0,0,0,0,0,0,4.0395,4.0409,4.0543,4.051,4.0512,4.0504,4.0513,4.0575,4.06,4.0551,4.055,4.056,4.0625,4.0648,4.0655,4.0752,4.0675,4.068,4.0684,4.0686,4.0917,4.0919,0,0,0,0,0,0,4.039,4.0404,4.054,4.0545,4.0449,4.051,4.052,4.0554,4.0599,4.0604,4.0562,4.0559,4.0639,4.0648,4.0658,4.0759,4.0681,4.0686,4.069,4.0914,4.0917,4.092,0,0,0,0,0,0,4.0386,4.0402,4.0537,4.0474,4.0491,4.0516,4.0554,4.0557,4.058,4.0608,4.0612,4.0582,4.0638,4.065,4.0722,4.0762,4.0689,4.0694,4.0911,4.0915,4.0919,4.0963,0,0,0,0,0,0,4.038,4.0401,4.0435,4.0475,4.0494,4.0601,4.0557,4.056,4.059,4.0586,4.0627,4.0631,4.0637,4.0713,4.0727,4.0768,4.0698,4.0907,4.0913,4.0917,4.0958,4.0968,4.0977,0,0,0,0,0,4.0374,4.0444,4.0437,4.0453,4.0538,4.0603,4.0614,4.062,4.0593,4.0627,4.0644,4.063,4.0755,4.0721,4.0736,4.0779,4.0905,4.0911,4.0917,4.0954,4.0967,4.0977,0,0,0,0,0,0,4.0406,4.0449,4.0442,4.0527,4.0562,4.0599,4.0642,4.0633,4.0676,4.067,4.0675,4.0684,4.0757,4.0776,4.0737,4.0863,4.0826,4.0835,4.0849,4.0861,4.087,4.0863,4.0703,0,0,0,0,0,4.0423,4.0474,4.0509,4.058,4.0598,4.0617,4.0646,4.0648,4.0683,4.0698,4.0721,4.0755,4.0801,4.0832,4.0877,4.0961,4.0968,4.0998,4.1007,4.1015,4.1023,4.1066,4.1079,4.0941,4.0941,4.094,0,0,4.0459,4.0488,4.052,4.0587,4.0615,4.0666,4.063,4.0686,4.0723,4.0706,4.0775,4.0793,4.0831,4.0909,4.0944,4.0926,4.1063,4.1023,4.1029,4.1032,4.1074,4.1087,4.1099,4.0945,4.0944,4.0943,0,0,4.0549,4.0578,4.064,4.0668,4.071,4.0722,4.0737,4.0776,4.0787,4.0857,4.0845,4.0888,4.0969,4.0996,4.102,4.112,4.1107,4.1134,4.1183,4.1225,4.1236,4.1246,4.128,4.1292,4.1142,4.1142,4.1142,0,4.0588,4.0666,4.0673,4.073,4.0759,4.0746,4.0808,4.0834,4.0888,4.0907,4.0887,4.0987,4.1012,4.1095,4.1119,4.114,4.1155,4.1129,4.1234,4.1244,4.1253,4.1285,4.1298,4.1145,4.1145,4.1144,4.1144,0,4.0711,4.0765,4.081,4.0863,4.0897,4.0956,4.0969,4.1002,4.1001,4.1014,4.1084,4.1113,4.1163,4.1183,4.1182,4.1265,4.1252,4.1233,4.1195,4.1269,4.1299,4.1312,4.1149,4.1148,4.1147,4.1147,0,0,4.0825,4.088,4.0896,4.0919,4.0964,4.1005,4.1062,4.1112,4.1139,4.1176,4.1223,4.1291,4.1273,4.1301,4.1302,4.134,4.1414,4.1316,4.1317,4.1332,4.1506,4.152,4.1534,4.1407,4.1409,4.1411,4.1502,0,4.0918,4.1021,4.1028,4.1119,4.1168,4.1156,4.1206,4.1237,4.1251,4.1293,4.1307,4.1355,4.1329,4.1345,4.1382,4.1398,4.1449,4.1391,4.1448,4.145,4.1438,4.155,4.1565,4.165,4.1514,4.1516,4.1518,0,4.1041,4.1083,4.118,4.1216,4.1237,4.1282,4.1326,4.1367,4.1402,4.1409,4.1439,4.1435,4.1491,4.1452,4.1529,4.1489,4.1513,4.1524,4.1527,4.1532,4.1488,4.1556,4.1677,4.169,4.1537,4.1535,4.1534,0,4.1113,4.1193,4.1261,4.1281,4.1325,4.1357,4.1376,4.1409,4.1437,4.1476,4.1494,4.1539,4.1563,4.1596,4.1603,4.1574,4.1679,4.1641,4.1685,4.1685,4.1707,4.1705,4.1832,4.1724,4.1724,4.1724,4.1723,0,4.1216,4.1275,4.1293,4.1335,4.14,4.1407,4.1471,4.1488,4.1516,4.156,4.1552,4.1592,4.1599,4.1641,4.1646,4.1708,4.1719,4.1725,4.1725,4.1725,4.1724,4.174,4.1734,4.1727,4.1726,4.1726,4.1725,0,4.1307,4.1321,4.1394,4.143,4.144,4.1487,4.1517,4.1555,4.1568,4.1622,4.1636,4.1654,4.1703,4.1713,4.177,4.1774,4.1846,4.1842,4.1835,4.1834,4.1877,4.1872,4.2017,4.2036,4.1917,4.1918,4.1919,0,4.1371,4.1417,4.1457,4.1486,4.1508,4.1554,4.1584,4.1591,4.1621,4.1663,4.1697,4.1744,4.1782,4.1859,4.1877,4.192,4.1915,4.1963,4.1922,4.1919,4.1914,4.1911,4.1915,4.1971,4.1972,4.1973,4.1974,0,4.1484,4.1488,4.1532,4.1577,4.1613,4.1648,4.1683,4.1706,4.1718,4.1752,4.1802,4.1831,4.1889,4.1936,4.1979,4.1997,4.1987,4.1987,4.1999,4.1999,4.1993,4.1995,4.1855,4.1984,4.1983,4.1982,4.1982,4.1981,4.1562,4.1601,4.1636,4.1684,4.171,4.1742,4.178,4.1797,4.1839,4.1888,4.1889,4.1942,4.1974,4.203,4.2051,4.2091,4.2076,4.2094,4.2099,4.2103,4.2106,4.1987,4.2099,4.2099,4.2099,4.2099,4.2098,0,4.1673,4.1694,4.1738,4.1787,4.1824,4.1812,4.1849,4.188,4.1928,4.1959,4.1997,4.2053,4.2097,4.2118,4.2162,4.219,4.2187,4.2201,4.2199,4.2202,4.2118,4.2102,4.2203,4.2203,4.2203,4.2203,4.2203,4.2203,4.1735,4.18,4.1808,4.1886,4.1906,4.196,4.1981,4.201,4.2034,4.2097,4.2135,4.2149,4.2175,4.222,4.226,4.2264,4.228,4.2297,4.2299,4.2219,4.2209,4.2199,4.2184,4.23,4.23,4.238,4.2381,4.2381]}]]